Regional Weather Roundup
Issued by NWS

Home | Current Version | Previous Version | Graphics & Text | Print | Product List | Glossary On
Versions: 1 2 3 4 5 6 7 8 9 10 11 12 13 14 15 16 17 18 19 20 21 22 23 24 25 26 27 28 29 30 31 32 33 34 35 36 37 38 39 40 41 42 43 44 45 46 47 48 49 50
000
ASUS43 KMPX 031410
RWRMN
WEATHER ROUNDUP FOR MINNESOTA
NATIONAL WEATHER SERVICE TWIN CITIES/CHANHASSEN MN
900 AM CDT MON AUG 03 2015


NOTE: "FAIR" INDICATES FEW OR NO CLOUDS BELOW 12,000 FEET WITH NO
SIGNIFICANT WEATHER AND/OR OBSTRUCTIONS TO VISIBILITY. N/A MEANS
CURRENT SKY AND/OR WEATHER CONDITIONS ARE NOT AVAILABLE.

MNZ060>063-068>070-031500-
   Twin Cities Metro

CITY           SKY/WX    TMP DP  RH WIND       PRES   REMARKS
TWIN CITIES    SUNNY     70  52  52 W7        29.90R
ST PAUL        SUNNY     70  52  52 W8        29.90R
CRYSTAL        SUNNY     70  52  52 NW10      29.90R
BLAINE         SUNNY     68  54  60 NW6       29.90R
LAKEVILLE      SUNNY     64  55  72 W6        29.92R
EDEN PRAIRIE   SUNNY     68  55  63 W8        29.91R
SOUTH ST PAUL  SUNNY     69  53  58 W3        29.90R
LAKE ELMO      FAIR      66  54  63 W6        29.91R
$$
MNZ001>005-007-008-013>017-022>024-027-028-031500-
   Northwest Minnesota

CITY           SKY/WX    TMP DP  RH WIND       PRES   REMARKS
BEMIDJI        SUNNY     61  49  65 NW13G20   29.90S
HALLOCK        SUNNY     61  54  77 NW8       29.92S
ROSEAU         SUNNY     61  54  77 NW10      29.88S
WARROAD        SUNNY     61  54  77 W14       29.88S
THIEF RVR FALL SUNNY     61  50  67 W7        29.92S
CROOKSTON      SUNNY     61  54  77 NW9       29.94R
FOSSTON        SUNNY     61  48  63 NW8       29.93S
DETROIT LAKES  SUNNY     61  52  72 NW6       29.95S
MOORHEAD       SUNNY     61  54  77 NW3       29.95S
PARK RAPIDS    SUNNY     63  51  65 NW8       29.92S
MAHNOMEN       FAIR      59  53  79 W5        29.94R
$$
MNZ006-009>011-018-025>026-031500-
   North Central Minnesota

CITY           SKY/WX    TMP DP  RH WIND       PRES   REMARKS
BAUDETTE       CLOUDY    60  53  77 NW14      29.85S
FLAG ISLAND    CLOUDY    57  54  88 NW17      29.85R
INTL FALLS     CLOUDY    61  53  75 W12       29.82R
WASKISH        SUNNY     61  54  77 W13       29.88R
BIG FORK       MOSUNNY   61  52  72 W5        29.86R
LONGVILLE      SUNNY     63  52  67 NW7G18    29.90R
GRAND RAPIDS   MOSUNNY   63  48  59 NW20G26   29.87R
CRANE LAKE     CLOUDY    59  52  77 W7        29.82R
ORR            CLOUDY    59  50  72 NW10G20   29.80S
COOK           PTSUNNY   59  52  77 W10G17    29.83R
WALKER         FAIR      60  49  66 W10       29.90S
$$
MNZ012-019>021-037-031500-
   Northeast Minnesota

CITY           SKY/WX    TMP DP  RH WIND       PRES   REMARKS
DULUTH         MOSUNNY   64  51  62 NW14      29.82S
ELY            CLOUDY    59  50  72 NW9G17    29.79S
HIBBING        SUNNY     62  51  67 NW18G24   29.84R
EVELETH        MOSUNNY   61  48  63 NW17G23   29.83S
DULUTH HARBOR  SUNNY     66  54  63 W17       29.82R
TWO HARBORS    SUNNY     66  55  68 NW3       29.78R
SILVER BAY     SUNNY     66  50  55 W12G22    29.77R
GRAND MARAIS     N/A     62  53  72 NW12G22   29.72S
G MARAIS ARPRT LGT RAIN  54  48  82 W7        29.76R
$$
MNZ029>031-032-039>041-046>048-054>057-064-031500-
   West Central Minnesota

CITY           SKY/WX    TMP DP  RH WIND       PRES   REMARKS
FERGUS FALLS   SUNNY     61  54  77 NW3       29.95S
WHEATON        SUNNY     63  54  72 NW7       29.98R
MORRIS         SUNNY     63  55  77 NW7       29.95S
ALEXANDRIA     SUNNY     64  53  67 NW7       29.96R
ELBOW LAKE     FAIR      60  53  78 NW6       29.95S
WADENA         SUNNY     63  54  72 W5        29.93R
GLENWOOD       SUNNY     64  54  68 W7        29.95R
APPLETON       SUNNY     66  55  68 NW7       29.95S
BENSON         SUNNY     63  54  72 N6        29.96R
ORTONVILLE     SUNNY     66  54  63 NW7       29.96S
MADISON        SUNNY     64  55  72 W6        29.97R
WILLMAR        FAIR      63  57  82 W5        29.96R
$$
MNZ033>034-036-042>043-049>051-058-059-031500-
   Central Minnesota

CITY           SKY/WX    TMP DP  RH WIND       PRES   REMARKS
ST CLOUD       SUNNY     65  52  62 NW9       29.92R
SAUK CENTRE    FAIR      62  55  78 W3        29.94S
PAYNESVILLE    SUNNY     61  54  78 W6        29.94S
AITKIN         SUNNY     64  52  63 NW8       29.88R
PINE RIVER     SUNNY     63  52  67 NW8       29.94R
BRAINERD       SUNNY     65  48  54 NW13      29.91R
STAPLES        SUNNY     63  48  59 NW7       29.93R
LONG PRAIRIE   FAIR      63  52  67 NW7       29.94R
LITCHFIELD     SUNNY     66  57  72 W5        29.94R
BUFFALO        SUNNY     67  53  58 NW5       29.93R
MAPLE LAKE     SUNNY     66  57  72 W5        29.93R
$$
MNZ037-044-045-052-053-031500-
   East Central Minnesota

CITY           SKY/WX    TMP DP  RH WIND       PRES   REMARKS
PRINCETON      SUNNY     66  54  63 W8        29.91S
MORA           SUNNY     64  52  63 NW10G18   29.90S
CAMBRIDGE      SUNNY     70  52  52 NW9       29.88S
RUSH CITY      SUNNY     65  51  60 NW8       29.89R
MOOSE LAKE     SUNNY     63  50  63 NW8       29.85R
HINCKLEY       FAIR      64  52  63 NW10G17   29.88R
CLOQUET        SUNNY     63  48  59 W15G23    29.84S
MCGREGOR       SUNNY     63  50  63 NW13      29.88S
$$
MNZ071>073-080-081-089-090-097-098-031500-
   Southwest Minnesota

CITY           SKY/WX    TMP DP  RH WIND       PRES   REMARKS
MONTEVIDEO     SUNNY     70  63  78 N5        29.98R
GRANITE FALLS  SUNNY     63  56  79 W7        29.98S
CANBY          SUNNY     67  56  67 NW6       29.99S
MARSHALL       SUNNY     66  52  59 NW9       29.99R
REDWOOD FALLS  SUNNY     67  55  65 W7        29.96R
OLIVIA         SUNNY     61  54  77 W7        29.95S
PIPESTONE      SUNNY     66  57  72 CALM      30.00R
WINDOM         SUNNY     66  55  68 CALM      29.98S
WORTHINGTON    SUNNY     66  55  68 W6        29.99S
JACKSON        SUNNY     66  55  68 W5        29.98S
TRACY          SUNNY     66  57  72 W5        29.99R
SLAYTON        SUNNY     66  55  67 CALM      30.01R
$$
MNZ065>067-074>077-082>085-091>093-031500-
   South Central Minnesota

CITY           SKY/WX    TMP DP  RH WIND       PRES   REMARKS
MANKATO        SUNNY     64  54  68 W7        29.94S
NEW ULM        SUNNY     64  55  72 NW9       29.95S
ST JAMES       SUNNY     66  55  68 W9        29.97R
FAIRMONT       SUNNY     66  52  59 CALM      29.96S
GLENCOE        SUNNY     65  57  74 W6        29.93S
FARIBAULT      SUNNY     66  55  68 W7        29.93S
OWATONNA       SUNNY     64  57  77 W6        29.94R
WASECA         SUNNY     63  55  77 W5        29.95S
ALBERT LEA     SUNNY     66  57  72 W3        29.95R
$$
MNZ078>079-086>088-094>096-031500-
   Southeast Minnesota

CITY           SKY/WX    TMP DP  RH WIND       PRES   REMARKS
ROCHESTER      SUNNY     65  55  70 W12       29.94R
RED WING       SUNNY     66  55  68 W7        29.89S
STANTON        SUNNY     66  56  70 W6        29.91S
DODGE CENTER   SUNNY     64  54  68 W10       29.93S
WINONA         SUNNY     70  55  60 NW6       29.90R
AUSTIN         SUNNY     70  54  56 W8        29.94R
PRESTON        SUNNY     66  52  60 W8        29.93S
$$
ABBREVIATIONS USED IN REMARKS
   TC - TEMPERATURES IN CELSIUS
  WCI - WIND CHILL INDEX
   HX - HEAT INDEX
  VSB - VISIBILITY
$$



USA.gov is the U.S. government's official web portal to all federal, state and local government web resources and services.